This demonstration page uses our WeatherBlox Daily Observations layout. Learn more.

Left ArrowRight Arrow

39.92423, -83.80882

Hourly Observations for August 29, 2020

Temp ( °F °C ) Dew Point ( °F °C ) Humidity (%) Winds ( mph kmh ) Pressure ( in mb ) Visibility ( mi km ) Precip ( " mm )
12:56 am 00:56 Clear 71 21.7 71 21.7 100 100 WSW 7 11 29.72 1007 10 16 N/A
1:56 am 01:56 Clear 70 21.1 70 21.1 100 100 SW 6 9 29.71 1006 10 16 N/A
2:56 am 02:56 Clear 68 20 68 20 100 100 SW 3 6 29.70 1006 10 16 N/A
3:10 am 03:10 Partly Cloudy 68 20 68 20 100 100 SW 5 7 29.68 1005 10 16 N/A
3:22 am 03:22 Mostly Cloudy 68 20 68 20 100 100 SSW 3 6 29.68 1005 10 16 N/A
3:29 am 03:29 Mostly Cloudy 70 21 70 21 100 100 N N/A 29.68 1005 10 16 N/A
3:56 am 03:56 Cloudy 69 20.6 69 20.6 100 100 SW 5 7 29.67 1005 10 16 N/A
4:45 am 04:45 Partly Cloudy 68 20 68 20 100 100 SW 5 7 29.66 1004 9 14 N/A
4:56 am 04:56 Mostly Clear 68 20 68 20 100 100 SSW 3 6 29.66 1005 8 13 N/A
5:31 am 05:31 Mostly Cloudy 68 20 68 20 100 100 WSW 5 7 29.66 1004 7 11 N/A
5:56 am 05:56 Partly Cloudy 68 20 68 20 100 100 WSW 5 7 29.67 1005 7 11 N/A
6:56 am 06:56 Mostly Cloudy with Mist and Fog 69 20.6 69 20.6 100 100 NNW 6 9 29.70 1006 6 10 N/A
7:20 am 07:20 Mostly Cloudy with Light Rain 70 21 70 21 100 100 N N/A 29.67 1005 7 11 0.00 0.00
7:31 am 07:31 Partly Cloudy with Mist and Fog 70 21 70 21 100 100 SW 6 9 29.67 1005 6 10 0.00 0.00
7:56 am 07:56 Partly Cloudy with Mist and Fog 69 20.6 69 20.6 100 100 SW 6 9 29.67 1005 5 8 0.00 0.00
8:15 am 08:15 Partly Cloudy with Mist and Fog 70 21 70 21 100 100 WSW 6 9 29.67 1005 6 10 N/A
8:36 am 08:36 Mostly Cloudy 72 22 72 22 100 100 WSW 10 17 29.66 1005 7 11 N/A
8:56 am 08:56 Cloudy 71 21.7 71 21.7 100 100 WSW 9 15 29.69 1005 10 16 N/A
9:12 am 09:12 Cloudy 72 22 72 22 100 100 W 10 17 29.67 1005 10 16 N/A
9:32 am 09:32 Cloudy 73 23 73 23 100 100 W 9 15 29.68 1005 10 16 N/A
9:56 am 09:56 Cloudy 75 23.9 73 22.8 94 94 W 10 17 29.70 1006 10 16 N/A
10:10 am 10:10 Cloudy 75 24 73 23 94 94 W 13 20 29.69 1005 10 16 N/A
10:56 am 10:56 Cloudy 77 25 73 22.8 88 88 W 12 19 29.70 1006 10 16 N/A
11:10 am 11:10 Mostly Cloudy 79 26 72 22 79 79 WNW 15 24 29.68 1005 10 16 N/A
11:49 am 11:49 Partly Cloudy 81 27 68 20 66 66 NW 17 28 29.69 1005 10 16 N/A
11:56 am 11:56 Partly Cloudy 81 27.2 68 20 65 65 WNW 16 26 29.71 1006 10 16 N/A
12:56 pm 12:56 Partly Cloudy 82 27.8 67 19.4 60 60 WNW 16 26 29.72 1007 10 16 N/A
1:56 pm 13:56 Mostly Cloudy 83 28.3 66 18.9 57 57 WNW 16 26 29.74 1007 10 16 N/A
2:56 pm 14:56 Mostly Cloudy 83 28.3 66 18.9 57 57 WNW 15 24 29.75 1007 10 16 N/A
3:56 pm 15:56 Partly Cloudy 84 28.9 65 18.3 53 53 WNW 13 20 29.74 1007 10 16 N/A
4:56 pm 16:56 Mostly Sunny 83 28.3 63 17.2 51 51 NW 14 22 29.75 1007 10 16 N/A
5:56 pm 17:56 Mostly Sunny 80 26.7 65 18.3 60 60 NNW 15 24 29.75 1008 10 16 N/A
6:56 pm 18:56 Mostly Cloudy 78 25.6 63 17.2 60 60 NNW 10 17 29.76 1008 10 16 N/A
7:56 pm 19:56 Sunny 73 22.8 62 16.7 69 69 NW 9 15 29.78 1009 10 16 N/A
8:56 pm 20:56 Clear 72 22.2 61 16.1 68 68 NW 7 11 29.80 1009 10 16 N/A
9:56 pm 21:56 Clear 70 21.1 60 15.6 71 71 NW 12 19 29.83 1010 10 16 N/A
10:56 pm 22:56 Clear 67 19.4 60 15.6 79 79 WNW 6 9 29.84 1010 10 16 N/A
11:56 pm 23:56 Clear 66 18.9 59 15 78 78 NW 7 11 29.85 1011 10 16 N/A

Powered by AerisWeather